Weather History for Middletown, OH

Change the Weather History Date:

Thursday, February 13, 2014

  Actual Average (KDAY) Record (KDAY)
Temperature  
Mean Temperature 23 °F 30 °F  
Max Temperature 38 °F 38 °F 70 °F (1938)
Min Temperature 8 °F 23 °F -28 °F (1899)
Degree Days  
Heating Degree Days 42 35  
Month to date heating degree days 465  
Since 1 July heating degree days 3788  
Cooling Degree Days 0 0  
Month to date cooling degree days 0  
Year to date cooling degree days 0  
Moisture  
Dew Point 6 °F    
Average Humidity 49    
Maximum Humidity 75    
Minimum Humidity 16    
Precipitation  
Precipitation 0.00 in 0.09 in 1.98 in (1948)
Month to date precipitation 1.05  
Year to date precipitation 3.76  
Snow  
Snow 0.00 in 0.30 in 5.60 in (1914)
Month to date snowfall 2.9  
Since 1 July snowfall 16.3  
Snow Depth -    
Sea Level Pressure  
Sea Level Pressure 29.84 in    
Wind  
Wind Speed 3 mph (SSW)    
Max Wind Speed 13 mph    
Max Gust Speed -    
Visibility 10 miles    
Events      
T = Trace of Precipitation, MM = Missing Value Source: NWS Daily Summary

Daily Weather History Graph

Daily Weather History Graph

Search for Another Location

Airport:

Trip Planner

Search our weather history database for the weather conditions in past years. The results will help you decide how hot, cold, wet, or windy it might be!

Date:

Astronomy

Feb. 13, 2014 Rise Set
Actual Time 7:32 AM EST 6:11 PM EST
Civil Twilight 7:04 AM EST 6:39 PM EST
Nautical Twilight 6:32 AM EST 7:11 PM EST
Astronomical Twilight 6:01 AM EST 7:42 PM EST
Moon 5:19 PM EST (2/13) 6:24 AM EST (2/13)
Length of Visible Light 11h 35m
Length of Day
10h 39m
Waxing Gibbous, 98% of the Moon is Illuminated
Feb 13
Waxing Gibbous
Feb 14
Full
Feb 22
Last Quarter
Mar 1
New
Mar 8
First Quarter

Hourly Weather History & Observations

Time (EST) Temp. Windchill Dew Point Humidity Pressure Visibility Wind Dir Wind Speed Gust Speed Precip Events Conditions
12:15 AM 15.3 °F 9.6 °F 7.3 °F 71% 30.02 in 10.0 mi NE 3.5 mph - N/A   Clear
12:35 AM 13.3 °F 7.3 °F 6.8 °F 75% 30.01 in 10.0 mi NE 3.5 mph - N/A   Clear
12:55 AM 12.7 °F 6.7 °F 4.1 °F 68% 30.01 in 10.0 mi North 3.5 mph - N/A   Clear
1:15 AM 15.3 °F 6.6 °F 5.4 °F 65% 30.00 in 10.0 mi NNE 5.8 mph - N/A   Clear
1:35 AM 12.7 °F - 5.2 °F 72% 29.99 in 10.0 mi Calm Calm - N/A   Clear
1:55 AM 14.0 °F 8.2 °F 6.4 °F 72% 29.98 in 10.0 mi North 3.5 mph - N/A   Clear
2:15 AM 12.7 °F 6.7 °F 5.4 °F 72% 29.98 in 10.0 mi ENE 3.5 mph - N/A   Clear
2:35 AM 12.7 °F 6.7 °F 5.5 °F 73% 29.98 in 10.0 mi NNE 3.5 mph - N/A   Clear
2:55 AM 12.7 °F - 5.0 °F 71% 29.97 in 10.0 mi Calm Calm - N/A   Clear
3:15 AM 12.7 °F - 4.5 °F 70% 29.97 in 10.0 mi Calm Calm - N/A   Clear
3:35 AM 12.7 °F - 6.1 °F 75% 29.96 in 10.0 mi Calm Calm - N/A   Clear
3:55 AM 12.9 °F - 4.1 °F 68% 29.95 in 10.0 mi Calm Calm - N/A   Clear
4:15 AM 12.7 °F - 5.0 °F 71% 29.95 in 10.0 mi Calm Calm - N/A   Clear
4:35 AM 12.7 °F - 5.5 °F 73% 29.95 in 10.0 mi Calm Calm - N/A   Clear
4:55 AM 14.9 °F - 4.3 °F 63% 29.95 in 10.0 mi Calm Calm - N/A   Clear
5:15 AM 15.3 °F - 4.1 °F 61% 29.95 in 10.0 mi Calm Calm - N/A   Clear
5:35 AM 13.5 °F - 3.4 °F 64% 29.95 in 10.0 mi Calm Calm - N/A   Clear
5:55 AM 12.7 °F 6.7 °F 4.5 °F 70% 29.96 in 10.0 mi North 3.5 mph - N/A   Clear
6:15 AM 12.7 °F 6.7 °F 2.1 °F 63% 29.96 in 10.0 mi North 3.5 mph - N/A   Clear
6:35 AM 12.7 °F 6.7 °F 3.4 °F 66% 29.96 in 10.0 mi North 3.5 mph - N/A   Clear
6:55 AM 12.7 °F - 3.2 °F 66% 29.95 in 10.0 mi Calm Calm - N/A   Clear
7:15 AM 10.2 °F 3.8 °F 1.6 °F 68% 29.95 in 10.0 mi NE 3.5 mph - N/A   Clear
7:35 AM 10.2 °F - 2.5 °F 71% 29.95 in 10.0 mi Calm Calm - N/A   Clear
7:55 AM 8.8 °F 2.2 °F 0.5 °F 69% 29.95 in 7.0 mi ENE 3.5 mph - N/A   Clear
8:15 AM 10.0 °F - 3.2 °F 74% 29.95 in 7.0 mi Calm Calm - N/A   Clear
8:35 AM 10.2 °F - 2.8 °F 72% 29.95 in 7.0 mi Calm Calm - N/A   Clear
8:55 AM 12.7 °F 6.7 °F 2.5 °F 64% 29.95 in 7.0 mi NE 3.5 mph - N/A   Clear
9:15 AM 15.3 °F - 3.4 °F 59% 29.94 in 10.0 mi Calm Calm - N/A   Clear
9:35 AM 15.8 °F - 2.7 °F 56% 29.93 in 10.0 mi Calm Calm - N/A   Clear
9:55 AM 17.6 °F 10.7 °F 3.7 °F 55% 29.92 in 10.0 mi East 4.6 mph - N/A   Clear
10:15 AM 19.8 °F 14.7 °F 5.4 °F 54% 29.91 in 10.0 mi East 3.5 mph - N/A   Clear
10:35 AM 21.2 °F - 5.5 °F 51% 29.90 in 10.0 mi Calm Calm - N/A   Clear
10:55 AM 25.3 °F 21.1 °F 7.0 °F 46% 29.89 in 10.0 mi ESE 3.5 mph - N/A   Clear
11:15 AM 27.3 °F 23.4 °F 8.2 °F 45% 29.89 in 10.0 mi East 3.5 mph - N/A   Clear
11:35 AM 28.6 °F 24.8 °F 6.4 °F 39% 29.88 in 10.0 mi East 3.5 mph - N/A   Clear
11:55 AM 32.5 °F 29.3 °F 7.7 °F 35% 29.87 in 10.0 mi East 3.5 mph - N/A   Clear
12:15 PM 32.5 °F - 6.4 °F 33% 29.86 in 10.0 mi Calm Calm - N/A   Clear
12:35 PM 32.5 °F - 2.1 °F 28% 29.84 in 10.0 mi Calm Calm - N/A   Clear
12:55 PM 32.5 °F - 3.7 °F 30% 29.83 in 10.0 mi Calm Calm - N/A   Clear
1:15 PM 35.1 °F 31.0 °F 1.2 °F 24% 29.81 in 10.0 mi ESE 4.6 mph - N/A   Clear
1:35 PM 35.1 °F - 0.1 °F 23% 29.80 in 10.0 mi Calm Calm - N/A   Clear
1:55 PM 35.1 °F - 6.4 °F 30% 29.79 in 10.0 mi Calm Calm - N/A   Clear
2:35 PM 37.4 °F - 6.8 °F 28% 29.76 in 10.0 mi Calm Calm - N/A   Clear
2:55 PM 37.6 °F - 5.0 °F 26% 29.76 in 10.0 mi Calm Calm - N/A   Clear
3:15 PM 37.6 °F - 4.8 °F 26% 29.76 in 10.0 mi Calm Calm - N/A   Clear
3:35 PM 37.6 °F 32.3 °F 1.2 °F 22% 29.76 in 10.0 mi SW 6.9 mph - N/A   Clear
3:55 PM 37.6 °F 32.3 °F 2.3 °F 23% 29.75 in 10.0 mi SSW 6.9 mph - N/A   Clear
4:15 PM 37.6 °F 33.1 °F 2.1 °F 23% 29.75 in 10.0 mi SSW 5.8 mph - N/A   Clear
4:35 PM 38.1 °F 32.9 °F 2.1 °F 22% 29.74 in 10.0 mi SW 6.9 mph - N/A   Clear
4:55 PM 37.6 °F 35.1 °F -0.9 °F 20% 29.74 in 10.0 mi West 3.5 mph - N/A   Clear
5:15 PM 37.6 °F 33.1 °F -5.3 °F 16% 29.73 in 10.0 mi WSW 5.8 mph - N/A   Scattered Clouds
5:35 PM 37.6 °F - -0.4 °F 20% 29.72 in 10.0 mi Calm Calm - N/A   Overcast
5:55 PM 37.6 °F - -0.9 °F 20% 29.71 in 10.0 mi Calm Calm - N/A   Overcast
6:15 PM 37.6 °F - -0.6 °F 20% 29.69 in 10.0 mi Calm Calm - N/A   Mostly Cloudy
6:35 PM 37.4 °F - 5.2 °F 26% 29.70 in 10.0 mi Calm Calm - N/A   Mostly Cloudy
6:55 PM 35.1 °F - 11.5 °F 38% 29.69 in 10.0 mi Calm Calm - N/A   Mostly Cloudy
7:15 PM 35.1 °F - 13.8 °F 42% 29.69 in 10.0 mi Calm Calm - N/A   Overcast
7:35 PM 33.1 °F - 13.6 °F 45% 29.69 in 10.0 mi Calm Calm - N/A   Mostly Cloudy
7:55 PM 33.1 °F 28.7 °F 8.8 °F 36% 29.69 in 10.0 mi SW 4.6 mph - N/A   Mostly Cloudy
8:15 PM 32.5 °F 28.1 °F 9.1 °F 38% 29.68 in 10.0 mi SSW 4.6 mph - N/A   Mostly Cloudy
8:35 PM 30.2 °F 25.4 °F 14.9 °F 53% 29.68 in 10.0 mi SW 4.6 mph - N/A   Scattered Clouds
8:55 PM 28.0 °F 21.7 °F 11.8 °F 51% 29.69 in 10.0 mi SW 5.8 mph - N/A   Clear
9:15 PM 27.9 °F 21.5 °F 13.5 °F 55% 29.69 in 10.0 mi SW 5.8 mph - N/A   Scattered Clouds
9:35 PM 27.9 °F 21.5 °F 12.4 °F 52% 29.68 in 10.0 mi SW 5.8 mph - N/A   Clear
9:55 PM 29.5 °F 23.4 °F 10.0 °F 44% 29.68 in 10.0 mi SSW 5.8 mph - N/A   Clear
10:15 PM 29.3 °F 21.5 °F 10.0 °F 45% 29.67 in 10.0 mi SW 8.1 mph - N/A   Clear
10:35 PM 29.7 °F 20.7 °F 12.4 °F 49% 29.66 in 10.0 mi SW 10.4 mph - N/A   Scattered Clouds
10:55 PM 32.5 °F 23.2 °F 14.2 °F 47% 29.65 in 10.0 mi SW 12.7 mph - N/A   Mostly Cloudy
11:15 PM 32.5 °F 23.2 °F 12.2 °F 43% 29.65 in 10.0 mi SW 12.7 mph - N/A   Scattered Clouds
11:35 PM 32.5 °F 24.2 °F 12.6 °F 44% 29.64 in 10.0 mi SW 10.4 mph - N/A   Mostly Cloudy
11:55 PM 32.5 °F 24.8 °F 14.0 °F 46% 29.63 in 10.0 mi SW 9.2 mph - N/A   Overcast